RH
95 98 94 91 92 97 87 78 76 80 82 79 82 97 99 92 54 49 52 48 48 64 79 86 62 64 76 60 56 59 48 44 42 20 25 25 16 9 10 14 42 76 98 99
30 71 98 100 78 64 66 89 96 100 92 91 91 97 96 96 90 77 38 29 39 48 61 64 78 73 73 68 66 53 58 59 60 55 24 13 19 19 21 26 43 62 74 97
51 24 25 41 50 60 82 100 100 100 100 99 99 96 86 97 98 99 73 61 55 38 40 86 94 76 82 74 69 72 66 72 65 59 47 25 17 14 14 16 18 38 62 94
99 67 28 40 38 65 70 75 79 86 81 75 71 84 85 84 99 99 98 97 85 79 48 34 67 78 79 60 74 83 86 71 69 60 38 24 15 13 15 22 32 30 43 61
99 100 93 59 51 47 49 68 53 50 58 64 52 57 85 98 97 90 87 88 92 92 90 80 69 80 87 65 92 86 85 65 51 50 40 24 16 12 12 17 32 38 35 41
33 41 66 98 89 99 100 100 95 92 52 36 42 47 76 82 70 79 76 100 97 98 91 98 94 93 98 83 74 96 90 98 97 55 34 25 21 17 13 17 22 26 16 17
17 33 77 75 91 96 79 55 64 58 81 69 57 49 72 86 80 69 76 84 96 97 99 100 98 100 100 99 83 90 100 100 97 56 43 37 42 23 26 18 15 15 19 21
11 9 20 33 38 46 34 21 56 51 40 72 76 84 68 75 86 92 88 75 72 70 84 95 99 95 97 100 100 95 94 98 89 71 69 60 68 78 54 45 26 26 28 34
24 22 20 22 23 22 22 22 13 9 8 10 68 80 82 81 78 68 72 76 65 63 62 85 86 86 92 100 97 98 95 79 83 97 96 100 96 89 74 66 65 65 63 68
26 26 27 22 19 19 16 14 14 13 18 17 27 75 80 77 74 56 78 96 74 64 93 93 85 75 70 72 75 92 92 90 94 99 99 99 90 85 89 96 97 97 95 95
30 32 32 22 19 18 16 13 12 13 12 14 19 24 66 65 77 100 99 98 99 92 94 97 89 82 96 90 75 74 71 80 95 99 95 98 98 99 96 97 96 98 99 99
39 39 37 32 26 23 19 18 14 16 14 12 17 22 47 60 39 89 93 88 96 96 100 99 87 81 95 98 100 97 98 99 100 97 100 99 99 97 98 98 98 98 90 90
54 49 40 34 34 30 25 24 15 13 13 15 27 61 100 93 69 96 97 96 100 96 100 100 85 73 83 85 92 94 100 90 96 96 94 96 92 95 95 99 97 96 94 100
50 53 51 48 45 39 35 23 18 22 16 19 44 50 100 100 100 100 95 100 82 95 100 100 100 100 100 100 99 100 88 90 99 100 100 100 100 97 97 99 99 100 100 100
63 60 58 55 50 44 39 30 28 24 17 48 100 79 75 99 100 99 100 100 98 87 85 95 96 90 100 100 100 100 100 100 100 100 100 100 100 100 100 100 99 89 81 97
73 78 64 61 67 62 60 44 40 32 47 100 100 100 100 100 100 100 97 82 97 100 90 94 99 96 96 77 79 100 100 100 99 98 100 99 99 100 100 94 95 84 52 29
82 100 98 84 76 80 74 77 65 62 96 100 100 100 100 100 100 100 97 79 94 100 98 100 100 97 93 88 86 84 85 86 96 100 100 99 100 100 84 41 36 40 66 90
69 93 92 87 99 98 87 96 97 81 86 98 95 100 89 87 92 98 99 89 76 74 73 73 82 91 97 89 75 70 64 63 59 52 50 53 52 69 75 87 100 100 100 100
69 76 74 90 98 95 94 100 100 100 96 89 94 86 76 82 81 88 85 86 90 88 83 78 78 78 78 80 79 72 70 66 76 84 88 100 100 100 100 100 100 87 77 82
59 58 57 70 86 74 64 86 100 100 99 100 98 81 78 89 89 88 89 94 92 86 85 92 88 92 96 92 75 68 76 93 100 100 100 100 100 100 100 100 100 100 100 100
68 68 68 72 67 62 76 100 88 80 81 76 62 60 72 84 85 92 100 92 84 88 98 95 90 84 96 98 98 98 100 100 100 100 100 100 100 100 100 100 100 98 94 88
90 81 73 68 85 100 100 100 100 100 100 98 100 100 100 98 97 99 97 95 100 100 100 100 100 100 100 96 98 100 100 100 100 100 99 92 76 56 42 32 22 16 12 9
100 100 100 100 100 100 100 100 100 100 100 100 100 100 100 100 100 100 100 100 100 100 100 100 100 100 100 100 100 99 95 83 57 32 14 12 13 11 9 8 7 7 7 7
100 100 100 100 100 100 100 100 100 100 100 100 100 100 100 100 100 100 100 100 100 100 100 97 86 69 47 28 17 14 13 16 20 16 12 10 9 8 7 7 8 9 10 10
100 100 100 100 100 100 100 100 100 100 100 100 100 100 100 98 93 81 64 51 41 37 36 39 42 41 36 25 14 11 10 9 9 9 9 9 10 10 11 11 11 10 10 11
100 100 100 100 99 95 95 93 88 85 78 65 51 41 33 26 21 18 16 15 14 13 12 12 11 11 11 11 10 10 10 11 12 12 12 12 11 10 10 11 12 12 13 14
20 18 17 16 17 17 18 18 18 17 16 16 15 15 14 14 13 13 13 12 12 12 12 12 12 13 13 14 14 15 15 14 14 14 12 11 11 12 12 13 14 16 18 20
Wind_Speed
32 30 33 31 32 37 37 38 41 39 41 34 30 28 24 25 30 33 35 33 30 29 32 32 30 26 28 31 27 27 26 26 23 23 27 28 27 27 29 28 29 31 31 32
35 36 33 31 30 31 34 35 36 38 40 36 33 32 28 26 28 29 30 32 33 35 32 33 33 30 30 33 34 32 27 25 28 26 27 27 28 31 31 32 32 33 33 34
37 39 38 38 36 35 34 36 38 39 37 33 35 32 33 26 29 29 29 29 30 34 35 35 33 32 32 30 33 35 34 27 28 30 30 32 32 31 31 32 33 34 37 39
36 36 37 37 36 35 35 35 36 36 37 36 35 33 32 33 30 33 32 35 31 29 29 31 33 30 29 28 29 29 31 33 34 36 35 35 34 33 32 32 33 33 33 35
46 36 37 37 38 38 37 35 37 37 38 38 39 37 31 31 37 36 36 32 33 29 27 28 28 30 35 28 28 30 28 27 28 36 39 36 37 36 34 33 33 33 34 35
52 51 50 43 41 36 35 33 31 37 41 43 44 43 38 33 35 39 40 33 33 37 30 29 27 30 33 30 29 31 32 33 34 35 38 39 39 38 37 37 36 37 37 38
51 51 47 45 43 42 43 48 51 46 42 44 45 47 41 36 35 39 42 40 41 35 30 32 35 35 39 39 35 36 36 37 40 36 35 38 38 42 40 41 41 41 40 40
31 38 44 45 50 50 49 52 52 51 50 46 41 44 44 39 37 37 41 40 38 38 42 40 40 43 41 45 42 43 42 43 42 41 40 41 39 41 42 43 42 43 44 46
17 17 23 23 24 28 26 27 35 45 48 56 50 48 46 43 44 44 40 40 44 43 44 44 43 45 41 40 44 46 45 44 45 43 47 46 44 41 39 39 39 41 43 44
19 19 22 22 22 24 25 25 27 31 34 36 52 48 46 41 46 48 46 45 45 45 42 46 48 49 48 48 46 48 47 49 50 50 48 45 44 43 45 47 50 45 47 49
26 26 25 25 26 27 28 26 28 33 35 37 34 42 56 50 45 42 45 46 46 48 46 45 49 45 43 41 41 44 49 52 50 51 48 48 48 49 49 49 45 47 47 52
33 32 32 30 30 32 33 33 33 34 37 38 37 37 40 49 52 49 48 38 38 38 39 44 46 41 35 46 44 50 46 51 48 51 50 56 55 52 51 49 51 49 52 54
36 36 37 37 37 37 38 38 33 34 39 38 34 35 28 33 43 47 51 46 43 36 34 41 42 43 37 38 41 49 50 51 52 54 52 55 57 57 56 57 58 55 60 59
37 38 41 42 43 43 43 40 41 44 45 37 38 41 38 32 28 33 32 45 44 41 47 47 45 49 55 60 56 50 51 55 61 62 66 65 64 63 63 65 65 62 58 56
40 43 44 45 47 48 49 47 48 44 40 36 31 42 48 42 40 37 37 35 43 47 46 46 47 47 57 62 54 60 62 58 57 49 49 57 58 58 61 62 60 55 57 62
38 40 42 44 46 46 44 44 45 40 40 28 24 23 33 38 38 36 38 40 40 43 45 46 49 46 46 52 57 58 62 62 47 54 47 52 54 51 57 57 58 61 65 68
38 44 40 35 37 37 39 36 39 44 47 38 27 28 31 36 40 38 39 41 42 43 44 44 43 44 45 48 49 52 55 57 66 55 57 56 61 56 62 65 64 66 68 68
37 39 41 36 32 26 29 31 33 34 44 49 36 34 39 37 38 41 44 47 46 46 46 48 50 51 50 50 51 51 51 52 52 54 58 57 59 66 67 65 69 72 73 76
37 34 37 38 32 30 32 30 27 30 36 40 44 44 46 47 46 43 44 47 55 56 54 54 54 55 54 55 54 53 53 52 52 54 58 62 66 70 71 73 75 78 80 82
36 36 36 36 35 33 33 26 28 29 35 38 39 39 44 46 46 45 43 44 49 54 61 60 56 52 55 56 52 50 51 54 56 59 61 64 67 70 72 74 76 77 79 81
29 31 34 33 36 36 33 29 32 32 37 38 43 49 50 48 50 51 50 47 46 48 50 52 56 52 53 53 54 56 58 61 62 63 66 68 69 69 70 70 73 77 80 82
27 33 35 35 31 30 31 33 35 36 36 37 37 40 44 48 49 48 47 48 49 52 52 52 53 54 55 57 57 58 60 60 60 61 62 63 65 67 70 73 76 79 82 85
25 26 28 31 33 36 36 37 37 39 40 42 46 47 47 46 48 48 49 49 49 49 48 48 48 49 50 52 53 54 55 57 58 60 62 66 69 73 76 78 81 81 81 80
26 30 32 34 36 39 38 37 37 38 37 37 37 37 38 39 39 40 41 42 44 45 46 47 49 51 53 55 57 59 61 64 67 69 71 74 76 76 75 73 70 68 68 68
17 20 22 24 26 28 31 33 34 35 36 36 37 38 40 43 45 47 48 50 52 53 54 56 58 60 62 63 64 66 67 68 68 68 67 64 61 60 60 61 62 62 62 61
23 25 27 29 31 33 35 37 39 41 43 45 47 49 51 53 55 56 58 59 60 61 62 62 63 63 63 63 61 59 57 55 53 52 52 53 55 56 57 57 56 56 56 56
34 35 37 39 40 42 44 46 48 50 52 53 55 57 59 60 62 63 63 63 63 62 61 60 57 54 51 48 45 44 44 46 47 47 49 51 53 53 52 52 52 51 52 52
Wind_Direction
229 226 235 239 238 244 251 255 256 258 260 258 258 251 223 239 235 232 241 240 236 232 241 249 259 255 264 263 271 267 266 265 274 279 276 272 267 264 268 267 268 271 270 272
231 229 235 236 243 246 251 252 257 264 263 266 259 254 243 236 246 257 246 243 247 244 236 244 248 249 262 274 274 269 261 264 270 280 280 272 269 269 267 268 269 268 269 266
244 242 235 237 240 242 245 254 259 262 266 266 267 264 264 247 242 249 255 255 255 250 248 242 253 256 253 257 261 263 263 261 263 264 275 273 268 267 268 270 272 273 269 267
239 243 242 238 237 235 240 249 257 263 267 266 265 266 265 263 255 256 254 253 259 259 260 260 252 252 250 256 257 258 263 271 267 266 267 267 268 267 266 269 273 275 274 273
236 232 239 237 244 246 248 250 253 258 262 265 266 267 262 262 261 255 258 254 258 254 252 260 262 249 257 255 254 263 262 270 266 263 257 256 261 267 271 271 272 276 277 277
242 246 241 243 242 245 249 256 251 257 257 258 261 262 262 260 262 254 255 261 265 264 260 264 263 260 260 256 258 262 267 274 276 272 264 261 259 259 264 267 269 269 272 274
248 247 248 250 250 252 257 255 257 253 255 256 259 260 260 259 256 263 254 253 257 256 252 262 254 253 256 258 260 258 261 268 274 278 279 278 274 268 267 269 270 272 270 270
242 248 254 255 256 256 258 257 253 252 255 256 254 258 262 260 259 256 259 259 264 266 263 255 261 257 255 264 256 259 256 259 274 277 282 281 279 277 273 272 273 276 276 277
232 235 242 252 252 256 261 262 264 267 266 253 248 256 256 260 263 262 257 258 262 263 262 263 264 263 259 260 264 261 262 270 276 273 277 279 276 277 277 276 277 276 276 278
229 234 245 256 265 270 278 282 283 279 277 273 254 253 252 257 262 258 259 261 257 254 256 259 261 264 268 269 267 265 268 270 273 270 269 274 278 282 277 274 281 284 279 281
241 243 247 254 262 271 282 285 287 288 285 282 276 262 256 258 263 255 254 256 256 255 253 255 262 267 265 267 261 261 263 263 267 264 274 282 280 282 277 279 281 286 284 287
248 251 250 255 263 269 277 286 292 290 290 283 280 279 274 267 264 261 255 251 255 251 251 256 262 258 261 255 254 265 276 254 263 278 273 281 277 284 286 285 283 283 289 289
256 254 254 258 265 267 271 280 284 289 293 283 273 265 267 257 260 265 255 249 246 252 250 257 262 260 266 268 266 261 262 270 270 271 274 279 279 282 280 283 282 281 287 285
256 259 262 265 268 268 270 269 273 286 291 275 270 254 252 264 257 248 265 246 243 249 240 242 243 253 252 261 264 261 270 274 278 270 268 266 262 272 278 278 279 275 277 276
265 264 266 267 268 269 270 269 275 275 275 256 274 254 257 268 266 256 269 267 253 253 255 255 259 261 257 253 251 244 258 259 251 253 266 261 263 267 270 274 280 282 282 275
257 259 260 258 259 261 262 267 265 256 252 258 270 254 250 260 265 265 268 262 263 260 259 261 259 261 256 257 262 263 260 263 269 262 275 274 279 273 278 280 280 285 285 284
262 250 258 269 264 266 261 269 258 254 246 258 274 281 264 273 266 265 265 265 268 269 270 269 268 267 262 261 264 265 266 266 268 282 285 285 283 274 284 283 281 282 282 283
257 260 261 259 264 268 283 276 264 262 262 259 264 257 269 277 279 278 270 266 266 270 273 274 272 270 271 272 273 273 274 274 274 273 276 276 276 277 278 278 278 279 281 281
254 258 261 262 269 270 275 273 268 258 261 267 265 269 270 274 275 278 277 274 268 268 271 270 270 271 273 273 279 282 281 279 277 277 275 273 273 274 277 279 280 281 282 283
257 259 255 259 261 272 280 268 271 264 262 263 262 269 275 274 273 274 276 278 275 273 272 275 275 280 278 277 282 280 277 276 276 276 276 278 280 281 281 282 283 284 285 286
255 256 258 260 262 269 270 266 271 269 272 270 267 269 270 271 275 276 277 280 280 279 277 276 278 280 278 278 277 276 275 275 277 278 278 279 281 282 284 285 286 286 287 288
272 258 256 256 257 266 269 270 271 273 277 277 273 272 272 273 274 271 270 270 272 272 271 270 269 270 272 275 275 273 274 276 277 279 280 283 285 287 288 289 289 289 288 288
268 266 259 261 262 269 268 269 269 271 271 271 269 271 274 273 270 270 271 271 270 270 270 271 272 273 274 274 275 277 279 280 281 282 284 286 288 289 289 289 288 288 288 289
266 257 259 264 266 271 275 272 272 271 270 269 269 269 270 270 270 271 272 273 274 275 276 278 280 281 282 282 283 283 283 283 283 284 286 287 287 288 288 289 291 292 293 294
277 269 265 265 267 267 268 269 270 270 271 272 273 274 276 278 279 280 281 281 281 281 280 280 281 281 282 283 283 284 285 287 289 289 289 290 291 291 293 294 295 297 298 299
276 275 274 274 275 276 278 279 279 279 280 280 280 279 280 280 281 281 281 281 281 282 283 283 284 286 288 289 290 291 291 291 291 292 294 296 297 298 298 299 300 300 300 301
281 280 281 281 282 282 282 282 282 281 281 281 280 280 280 280 281 282 283 285 286 288 289 290 291 291 291 291 291 292 293 295 297 299 301 301 301 301 301 301 301 301 302 302